Location: Dealu Mare
(46.0500°N, 22.8167°E)
Time: 20:25:38
(UTC+00:00)

Okean 1-7 - Pass Details

Date: 15 January 2026
Orbit: 566 x 588 km, 82.5° (Epoch: 10 February)

Event Time Altitude Azimuth Distance (km) Brightness Sun altitude
Rises 04:38:41 0° 354° (N) 2,781 6.2 -14.9°
Reaches altitude 10° 04:40:54 10° 359° (N) 1,881 5.4 -14.6°
Maximum altitude 04:44:59 56° 78° (ENE) 682 3.6 -13.9°
Drops below altitude 10° 04:49:04 10° 158° (SSE) 1,877 6.1 -13.2°
Sets 04:51:16 0° 162° (SSE) 2,774 6.9 -12.8°
